Tracking 29034 objects as of 25-Jun-2024
HD Live streaming from Space Station
objects crossing your sky now

TES

Track TES now!
10-day predictions
TES is classified as:


NORAD ID: 26957
Int'l Code: 2001-049A
Perigee: 463.9 km
Apogee: 499.1 km
Inclination: 97.9 °
Period: 94.1 minutes
Semi major axis: 6852 km
RCS: 3.0893 m2 (large)
Launch date: October 22, 2001
Source: India (IND)
Launch site: SRIHARIKOTA (SRI)

Takes high resolution photos of anything over 3 feet; called prototype for India's "spy satellite."
Your satellite tracking list
Your tracking list is empty




NASA's NSSDC Master Catalog

Two Line Element Set (TLE):
1 26957U 01049A   24176.52796233  .00014182  00000-0  47887-3 0  9993
2 26957  97.8863   2.9311 0025643 215.6598 144.2930 15.30482917246368
Source of the keplerian elements: AFSPC